BST,Max TemperatureF,Mean TemperatureF,Min TemperatureF,Max Dew PointF,MeanDew PointF,Min DewpointF,Max Humidity, Mean Humidity, Min Humidity, Max Sea Level PressureIn, Mean Sea Level PressureIn, Min Sea Level PressureIn, Max VisibilityMiles, Mean VisibilityMiles, Min VisibilityMiles, Max Wind SpeedMPH, Mean Wind SpeedMPH, Max Gust SpeedMPH,PrecipitationIn, CloudCover, Events, WindDirDegrees
2013-9-1,71,60,48,52,47,45,87,69,43,30.42,30.38,30.33,6,6,6,16,8,,0.00,1,,266
2013-9-2,75,62,50,59,54,48,94,76,57,30.36,30.31,30.27,6,6,6,13,7,,0.00,5,,262
2013-9-3,75,63,51,61,57,52,100,80,57,30.36,30.32,30.24,6,6,3,6,3,,0.00,5,,195
2013-9-4,78,64,51,61,55,50,100,74,41,30.24,30.12,29.98,6,4,0,14,5,,0.00,3,Fog,163
2013-9-5,73,62,50,57,53,46,94,74,44,29.98,29.88,29.83,6,6,6,14,6,,0.00,1,,315
2013-9-6,59,54,48,54,51,46,100,90,77,29.83,29.77,29.74,6,5,1,13,8,,0.00,5,Fog-Rain,296
2013-9-7,60,52,44,52,47,43,100,83,55,30.01,29.89,29.77,6,6,4,12,6,,0.00,4,Rain,189
2013-9-8,62,52,41,48,45,41,100,80,55,30.04,30.01,29.98,6,6,6,12,6,23,0.00,3,Rain,197
2013-9-9,62,53,44,54,49,45,100,88,59,30.09,30.01,29.98,6,6,3,15,6,,0.00,4,Rain,296
2013-9-10,60,54,48,52,48,45,94,79,59,30.18,30.14,30.09,6,6,6,20,10,,0.00,3,,313
2013-9-11,57,54,51,54,52,50,100,92,82,30.21,30.16,30.09,6,5,1,13,9,,0.00,6,Rain,310
2013-9-12,69,61,53,61,57,54,100,88,60,30.09,30.07,30.04,6,5,1,9,4,,0.00,6,Rain,244
2013-9-13,64,56,48,61,53,48,100,88,64,30.09,30.04,29.98,6,5,2,10,7,,0.00,6,Rain,321
2013-9-14,59,52,44,50,47,41,100,86,67,30.09,30.02,29.95,6,6,2,10,7,,0.00,4,Rain,321
2013-9-15,59,52,44,57,47,41,100,87,71,30.06,29.73,29.47,6,5,1,22,10,34,0.00,6,Rain,227
2013-9-16,55,50,44,43,41,39,87,71,54,29.59,29.55,29.53,6,6,6,20,14,31,0.00,4,,262
2013-9-17,51,48,46,50,46,41,100,87,76,29.59,29.48,29.36,6,4,1,18,10,,0.00,6,Rain,247
2013-9-18,59,54,48,50,46,43,100,82,59,29.86,29.64,29.44,6,6,3,18,7,,0.00,4,Rain,296
2013-9-19,64,56,48,57,49,43,94,80,59,29.86,29.77,29.68,6,6,3,17,9,29,0.00,4,Rain,234
2013-9-20,62,58,53,50,48,46,82,74,59,30.18,30.04,29.86,6,6,6,13,8,,0.00,6,,273
2013-9-21,69,60,50,63,55,46,94,87,73,30.27,30.19,30.15,6,6,6,9,6,21,0.00,5,,197
2013-9-22,71,63,53,61,58,54,100,84,64,30.36,30.33,30.27,6,6,6,9,6,,0.00,5,Fog,244
2013-9-23,62,58,53,59,58,52,100,93,88,30.33,30.24,30.12,6,5,3,9,4,,0.00,8,Fog,164
2013-9-24,64,58,53,59,57,54,100,94,83,30.12,30.01,29.92,4,2,1,9,5,,0.00,7,,157
2013-9-25,68,60,53,63,57,54,100,91,73,29.92,29.88,29.83,4,2,0,9,4,,0.00,7,Fog,96
2013-9-26,62,58,53,55,50,48,94,77,59,30.06,30.03,29.95,6,6,3,12,8,,0.00,6,,80
2013-9-27,64,57,50,52,49,48,94,76,56,30.06,30.00,29.92,6,6,6,10,7,,0.00,1,,106
2013-9-28,66,57,48,54,49,41,100,76,48,29.92,29.84,29.77,6,4,1,13,7,,0.00,3,,68
2013-9-29,66,60,53,52,50,48,88,76,56,29.80,29.77,29.74,6,6,6,15,10,,0.00,2,,60
2013-9-30,64,58,53,55,51,48,88,77,63,29.80,29.74,29.71,6,6,5,13,8,,0.00,6,,75